SCP
0 0 0 0 0 0 0 0 0 0 0 0 0 0 0 0 0 0 0 0 0 0 0 0 0 0 0 0 0 0 0 0 0 0 0 0 0 0 0 0 0 0 0
0 0 0 0 0 0 0 0 0 0 0 0 0 0 0 0 0 0 0 0 0 0 0 0 0 0 0 0 0 0 0 0 0 0 0 0 0 0 0 0 0 0 0
0 0 0 0 0 0 0 0 0 0 0 0 0 0 0 0 0 0 0 0 0 0 0 0 0 0 0 0 0 0 0 0 0 0 0 0 0 0 0 0 0 0 0
0 0 0 0 0 0 0 0 0 0 0 0 0 0 0 0 0 0 0 0 0 0 0 0 0 0 0 0 0 0 0 0 0 0 0 0 0 0 0 0 0 0 0
0 0 0 0 0 0 0 0 0 0 0 0 0 0 0 0 0 0 0 0 0 0 0 0 0 0 0 0 0 0 0 0 0 0 0 0 0 0 0 0 0 0 0
0 0 0 0 0 0 0 0 0 0 0 0 0 0 0 0 0 0 0 0 0 0 0 0 0 0 0 0 0 0 0 0 0 0 0 0 0 0 0 0 0 0 0
0 0 0 0 0 0 0 0 0 0 0 0 0 0 0 0 0 0 0 0 0 0 0 0 0 0 0 0 0 0 0 0 0 0 0 0 0 0 0 0 0 0 0
0 0 0 0 0 0 0 0 0 0 0 0 0 0 0 0 0 0 0 0 0 0 0 0 0 0 0 0 0 0 0 0 0 0 0 0 0 0 0 0 0 0 0
0 0 0 0 0 0 0 0 0 0 0 0 0 0 0 0 0 0 0 0 0 0 0 0 0 0 0 0 0 0 0 0 0 0 0 0 0 0 0 0 0 0 0
0 0 0 0 0 0 0 0 0 0 0 0 0 0 0 0 0 0 0 0 0 0 0 0 0 0 0 0 0 0 0 0 0 0 0 0 0 0 0 0 0 0 0
0 0 0 0 0 0 0 0 0 0 0 0 0 0 0 0 0 0 0 0 0 0 0 0 0 0 0 0 0 0 0 0 0 0 0 0 0 0 0 0 0 0 0
0 0 0 0 0 0 0 0 0 0 0 0 0 0 0 0 0 0 0 0 0 0 0 0 0 0 0 0 0 0 0 0 0 0 0 0 0 0 0 0 0 0 0
0 0 0 0 0 0 0 0 0 0 0 0 0 0 0 0 0 0 0 0 0 0 0 0 0 0 0 0 0 0 0 0 0 0 0 0 0 0 0 0 0 0 0
0 0 0 0 0 0 0 0 0 0 0 0 0 0 0 0 0 0 0 0 0 0 0 0 0 0 0 0 0 0 0 0 0 0 0 0 0 0 0 0 0 0 0
0 0 0 0 0 0 0 0 0 0 0 0 0 0 0 0 0 0 0 0 0 0 0 0 0 0 0 0 0 0 0 0 0 0 0 0 0 0 0 0 0 0 0
0 0 0 0 0 0 0 0 0 0 0 0 0 0 0 0 0 0 0 -0 0 0 0 0 0 0 0 0 0 0 0 0 0 0 0 0 0 0 0 0 0 0 0
0 0 0 0 0 0 0 0 0 0 0 0 0 0 0 0 0 0 0 0 -0 0 0 0 0 0 0 0 0 0 0 0 0 0 0 0 0 0 0 0 0 0 0
0 0 0 0 0 0 0 0 0 0 0 0 0 0 0 0 0 0 0 0 0 0 0 0 0 0 0 0 0 0 0 0 0 0 0 0 0 0 0 0 0 0 0
0 0 0 0 0 0 0 0 0 0 0 0 0 0 0 0 0 0 0 0 0 0 0 0 0 0 0 0 0 0 0 0 0 0 0 0 0 0 0 0 0 0 0
0 0 0 0 0 0 0 0 0 0 0 0 0 0 0 0 0 0 0 0 0 0 0 0 0 0 0 0 0 0 0 0 0 0 0 0 0 0 0 0 0 0 0
0 0 0 0 0 0 0 0 0 0 0 0 0 0 0 0 0 0 0 0 0 -0 0 0 0 0 0 0 0 -0 -0 0 0 0 0 0 0 0 0 0 0 0 0
0 0 0 -0 -0 -0 0 0 0 0 0 0 0 0 0 0 0 0 0 0 0 0 0 0 -0 0 0 0 0 0 0 0 0 0 0 0 0 0 0 0 0 0 0
0 0 -0 -0 -0 0 0 0 0 0 0 0 0 0 0 0 0 0 0 0 0 0 0 0 -0 -0 -0 0 0 0 0 0 0 0 0 0 0 0 0 0 0 0 0
0 0 0 -0 0 -0 0 0 0 0 0 0 0 0 0 0 -0 -0 -0 0 0 0 0 -0 0 -0 -0 0 0 0 0 0 0 0 0 0 0 0 0 0 0 0 0
0 0 -0 -0 -0 -0 -0 0 0 0 0 0 0 0 0 0 -0 -0 0 0 0 0 0 0 -0 -0 -0 -0 0 0 0 0 0 0 0 0 0 0 0 0 0 0 0
-0 -0 -0 -0 -0 -0 -0 -0 0 0 0 0 0 0 0 0 -0 -0 0 0 0 0 0 0 0 -0 -0 -0 0 0 0 0 0 0 0 0 0 0 0 0 0 0 0
Wind_Speed_500mb
62 45 39 38 51 52 46 45 45 41 42 46 49 51 55 57 54 53 54 54 56 59 58 65 54 46 52 54 55 56 57 58 64 60 46 33 26 32 38 28 28 32 44
48 35 33 37 42 43 42 42 40 43 47 50 52 56 57 58 57 57 58 57 59 63 66 68 61 56 54 54 52 48 52 52 54 59 57 47 38 33 36 38 37 28 40
39 31 36 38 40 42 42 41 44 50 52 54 56 59 61 61 60 60 61 62 66 71 74 69 62 59 60 58 55 51 46 47 53 61 61 53 47 37 36 37 39 31 33
35 36 38 39 40 40 42 46 50 53 58 60 61 63 64 65 65 65 66 68 75 78 79 64 61 62 63 65 64 62 55 50 47 50 52 58 52 38 41 40 44 45 40
53 52 51 46 44 43 45 49 51 57 62 62 64 67 68 71 73 74 75 81 85 87 74 64 64 64 66 68 67 66 64 63 57 55 51 43 57 45 42 41 54 52 59
60 60 51 47 46 45 44 44 55 60 61 64 68 73 79 82 80 78 80 81 79 75 76 78 78 77 78 76 74 75 74 74 66 59 64 58 45 58 39 47 57 58 62
66 66 60 54 49 45 43 46 53 57 61 68 75 81 84 85 84 83 72 68 69 73 74 78 79 79 77 77 74 74 76 81 81 80 83 77 66 52 46 57 60 71 62
62 58 51 46 40 39 41 49 55 64 72 77 79 82 87 85 80 73 67 66 71 75 77 76 78 78 77 77 80 75 81 83 79 80 83 84 72 68 54 57 58 62 72
50 45 42 39 40 43 47 56 65 70 76 77 79 78 74 72 64 55 52 54 61 67 68 70 70 72 73 68 65 74 84 91 81 77 81 74 69 74 63 67 58 83 81
35 41 38 37 39 45 53 61 66 70 74 73 69 67 65 65 59 54 55 59 68 74 79 83 81 81 78 73 72 76 82 85 77 83 77 74 71 73 76 73 70 79 82
37 33 29 37 42 50 57 60 63 67 64 64 65 62 61 60 62 66 68 83 89 92 94 96 91 86 85 90 93 97 103 94 92 87 80 80 81 80 81 79 87 68 84
34 32 37 42 50 52 53 56 54 54 57 56 58 67 77 82 84 87 81 70 65 70 77 78 80 81 87 89 87 92 91 90 92 91 91 82 89 83 84 89 86 90 83
34 38 40 46 45 46 45 43 48 47 45 54 67 73 84 85 88 84 73 70 75 80 82 87 89 92 94 95 93 92 90 86 89 104 111 103 94 87 81 78 76 91 89
37 37 43 40 37 32 32 39 40 46 54 55 64 76 84 86 85 79 79 83 84 84 85 87 91 98 99 97 94 92 89 87 89 99 103 95 89 82 80 81 80 91 91
37 34 27 25 23 28 30 35 44 43 52 61 63 72 76 78 77 74 75 78 73 75 74 80 87 86 86 83 80 78 74 78 79 89 89 86 95 84 82 86 93 98 91
27 19 20 22 21 23 34 42 40 47 45 52 50 48 55 58 64 63 61 59 60 60 63 73 76 72 75 76 76 74 74 69 74 87 97 90 92 84 86 94 93 103 96
14 16 17 17 23 28 27 38 48 47 42 44 42 41 44 54 53 49 50 58 62 67 75 77 76 76 77 73 67 68 83 75 71 91 95 94 96 81 93 91 92 100 97
4 8 14 16 13 18 26 32 38 45 51 52 44 44 43 47 46 45 54 61 74 78 78 78 80 78 72 60 55 54 58 66 77 93 104 97 109 79 100 96 97 101 101
4 6 6 6 12 19 21 26 33 40 44 46 49 48 48 41 46 53 63 73 80 89 89 87 80 64 58 54 46 48 53 67 81 91 92 100 115 81 100 95 98 98 99
7 15 19 12 15 16 22 27 34 40 42 45 48 50 51 51 58 68 74 79 85 89 88 86 69 53 41 18 17 24 45 65 75 83 92 106 80 101 95 100 104 105 102
2 7 11 11 13 18 24 28 33 38 44 48 48 46 47 58 66 71 78 84 87 88 87 80 60 35 1 6 22 27 44 63 76 76 92 111 66 89 92 99 100 97 96
2 3 11 8 12 18 25 31 32 35 41 49 51 49 54 59 66 72 78 80 83 87 84 75 49 31 19 10 29 36 47 61 71 78 103 96 72 83 82 81 90 92 95
10 2 10 13 12 20 25 28 35 39 41 46 51 55 56 64 68 71 76 77 86 91 88 82 57 34 16 22 25 36 46 59 70 65 87 99 67 79 88 82 88 87 88
10 2 9 13 15 19 25 26 36 45 49 49 48 54 56 62 65 68 72 77 86 91 93 87 70 33 33 29 28 27 40 61 65 63 76 82 78 79 80 81 75 82 87
5 13 15 21 24 21 29 39 41 46 52 53 52 53 55 57 61 66 71 76 82 90 95 93 82 68 17 31 31 28 38 49 65 62 64 69 69 65 77 82 73 84 87
25 24 36 33 34 36 37 36 38 40 41 44 48 53 52 56 58 63 71 77 82 85 88 90 91 80 68 51 29 39 36 33 37 50 58 64 63 66 74 73 76 77 83
Wind_Direction_500mb
209 212 223 234 220 229 241 250 260 271 285 291 295 302 308 312 312 307 304 301 296 297 299 299 296 287 281 278 276 275 272 267 275 277 274 285 293 291 291 282 271 256 242
203 220 227 221 228 239 248 258 275 286 290 295 297 300 305 307 307 304 301 297 291 291 294 292 286 290 286 286 280 276 271 268 269 277 274 267 272 290 281 271 267 255 246
201 217 223 231 241 249 258 269 277 283 288 297 299 300 303 305 305 303 300 296 290 290 293 291 276 277 280 282 281 280 275 273 269 268 272 264 265 280 284 258 245 241 253
213 223 233 239 248 256 263 267 276 288 295 295 295 299 303 303 301 300 297 292 290 289 292 285 276 274 273 274 275 280 275 275 274 276 275 265 256 265 269 259 231 231 237
210 222 229 238 243 246 253 261 277 286 288 296 298 299 301 302 301 300 297 293 289 288 285 281 276 272 272 273 272 270 266 270 273 273 275 274 254 253 249 252 235 234 225
208 216 219 220 226 238 249 262 281 291 293 292 295 298 298 298 298 297 294 288 285 284 281 273 269 268 268 267 264 265 261 261 259 265 265 262 262 250 261 242 233 215 212
210 213 218 225 226 233 251 275 283 281 282 286 290 293 294 295 297 298 299 292 285 286 286 285 281 276 273 269 267 266 263 259 257 258 259 258 255 255 243 240 231 236 232
199 198 204 212 221 240 263 275 274 276 284 289 293 294 295 297 299 301 303 298 289 288 286 284 280 277 274 269 269 269 262 261 257 257 251 251 249 249 246 247 239 239 227
186 193 207 216 235 253 267 274 279 284 289 292 295 297 300 302 309 314 310 302 295 292 290 288 285 281 277 274 272 264 261 262 261 256 257 253 248 244 246 233 228 220 221
191 208 215 233 256 271 278 282 285 290 293 296 301 307 310 311 316 310 302 296 292 292 291 288 285 282 281 278 273 268 267 266 259 254 255 251 246 236 235 234 228 218 216
210 221 236 258 272 278 283 288 291 294 299 308 308 310 312 307 300 295 291 287 289 290 285 282 280 278 277 276 273 269 266 269 263 258 253 250 244 243 229 229 225 222 222
226 243 261 275 283 288 289 290 293 302 305 309 310 303 301 305 312 313 308 302 296 292 288 287 285 284 284 279 273 268 264 258 254 248 245 238 240 240 231 225 225 225 232
243 255 269 283 284 287 292 297 301 304 305 301 302 306 310 315 314 312 314 313 309 306 301 298 295 291 288 282 276 272 269 257 240 239 236 240 232 229 230 226 226 223 225
254 266 280 281 288 293 298 302 301 301 302 304 307 309 312 312 312 317 314 311 307 303 301 301 295 292 290 288 283 277 269 257 239 229 229 224 222 221 219 224 213 212 215
264 275 279 285 286 290 293 289 295 294 300 305 306 309 307 309 313 311 309 307 305 303 304 295 296 297 292 288 284 278 269 255 237 225 219 212 212 213 210 212 198 202 206
260 260 271 278 292 284 285 291 291 303 316 310 311 307 306 308 314 313 312 309 316 322 313 308 307 304 299 295 288 280 272 252 233 214 208 205 209 203 201 186 192 198 198
254 262 276 273 275 292 301 314 324 331 330 326 332 324 326 326 327 324 321 325 332 331 329 323 309 306 300 292 281 265 261 251 226 207 199 201 199 195 191 185 187 198 198
241 271 300 290 308 319 331 337 332 337 342 339 345 346 343 341 339 344 344 343 345 345 338 323 317 313 305 292 288 264 246 230 214 200 196 195 189 192 181 183 182 185 191
221 348 2 34 355 347 348 349 351 350 350 351 353 357 359 354 356 1 5 2 353 348 342 336 331 322 317 303 279 253 233 211 198 190 188 189 185 193 181 181 187 188 192
58 25 34 16 2 1 7 6 6 2 4 7 9 6 1 6 7 7 9 3 360 355 350 344 338 340 335 322 255 202 192 188 181 179 179 179 182 182 186 187 186 189 195
123 20 11 9 7 23 21 21 18 15 17 18 18 19 22 18 15 11 10 7 5 2 358 353 350 1 36 89 129 167 172 171 169 172 176 175 180 175 178 179 185 186 192
181 351 18 24 18 17 20 26 19 17 19 21 22 21 25 25 21 16 15 12 11 11 9 6 9 38 153 135 142 153 160 164 170 168 177 175 175 178 181 187 192 193 195
200 301 29 18 2 9 30 34 27 27 27 28 27 25 24 26 24 22 19 18 21 18 19 22 31 55 163 162 143 152 156 160 164 164 179 184 176 173 186 192 192 194 198
172 6 15 20 26 40 46 35 35 34 32 29 27 26 24 25 24 24 25 26 26 26 28 32 38 51 102 166 174 159 165 163 169 171 171 177 181 191 196 200 200 204 201
135 15 34 76 72 60 47 45 39 35 30 27 26 26 26 26 27 27 32 33 33 31 32 36 40 51 83 140 162 168 172 174 179 181 183 194 192 193 198 200 208 206 204
43 55 97 86 70 65 54 40 32 32 30 27 33 33 33 33 33 33 36 39 39 39 36 37 41 45 56 70 135 166 172 173 190 194 201 208 205 205 203 204 207 209 208
Wind_Speed_850mb
62 45 39 38 51 52 46 45 45 41 42 46 49 51 55 57 54 53 54 54 56 59 58 65 54 46 52 54 55 56 57 58 64 60 46 33 26 32 38 28 28 32 44
48 35 33 37 42 43 42 42 40 43 47 50 52 56 57 58 57 57 58 57 59 63 66 68 61 56 54 54 52 48 52 52 54 59 57 47 38 33 36 38 37 28 40
39 31 36 38 40 42 42 41 44 50 52 54 56 59 61 61 60 60 61 62 66 71 74 69 62 59 60 58 55 51 46 47 53 61 61 53 47 37 36 37 39 31 33
35 36 38 39 40 40 42 46 50 53 58 60 61 63 64 65 65 65 66 68 75 78 79 64 61 62 63 65 64 62 55 50 47 50 52 58 52 38 41 40 44 45 40
53 52 51 46 44 43 45 49 51 57 62 62 64 67 68 71 73 74 75 81 85 87 74 64 64 64 66 68 67 66 64 63 57 55 51 43 57 45 42 41 54 52 59
60 60 51 47 46 45 44 44 55 60 61 64 68 73 79 82 80 78 80 81 79 75 76 78 78 77 78 76 74 75 74 74 66 59 64 58 45 58 39 47 57 58 62
66 66 60 54 49 45 43 46 53 57 61 68 75 81 84 85 84 83 72 68 69 73 74 78 79 79 77 77 74 74 76 81 81 80 83 77 66 52 46 57 60 71 62
62 58 51 46 40 39 41 49 55 64 72 77 79 82 87 85 80 73 67 66 71 75 77 76 78 78 77 77 80 75 81 83 79 80 83 84 72 68 54 57 58 62 72
50 45 42 39 40 43 47 56 65 70 76 77 79 78 74 72 64 55 52 54 61 67 68 70 70 72 73 68 65 74 84 91 81 77 81 74 69 74 63 67 58 83 81
35 41 38 37 39 45 53 61 66 70 74 73 69 67 65 65 59 54 55 59 68 74 79 83 81 81 78 73 72 76 82 85 77 83 77 74 71 73 76 73 70 79 82
37 33 29 37 42 50 57 60 63 67 64 64 65 62 61 60 62 66 68 83 89 92 94 96 91 86 85 90 93 97 103 94 92 87 80 80 81 80 81 79 87 68 84
34 32 37 42 50 52 53 56 54 54 57 56 58 67 77 82 84 87 81 70 65 70 77 78 80 81 87 89 87 92 91 90 92 91 91 82 89 83 84 89 86 90 83
34 38 40 46 45 46 45 43 48 47 45 54 67 73 84 85 88 84 73 70 75 80 82 87 89 92 94 95 93 92 90 86 89 104 111 103 94 87 81 78 76 91 89
37 37 43 40 37 32 32 39 40 46 54 55 64 76 84 86 85 79 79 83 84 84 85 87 91 98 99 97 94 92 89 87 89 99 103 95 89 82 80 81 80 91 91
37 34 27 25 23 28 30 35 44 43 52 61 63 72 76 78 77 74 75 78 73 75 74 80 87 86 86 83 80 78 74 78 79 89 89 86 95 84 82 86 93 98 91
27 19 20 22 21 23 34 42 40 47 45 52 50 48 55 58 64 63 61 59 60 60 63 73 76 72 75 76 76 74 74 69 74 87 97 90 92 84 86 94 93 103 96
14 16 17 17 23 28 27 38 48 47 42 44 42 41 44 54 53 49 50 58 62 67 75 77 76 76 77 73 67 68 83 75 71 91 95 94 96 81 93 91 92 100 97
4 8 14 16 13 18 26 32 38 45 51 52 44 44 43 47 46 45 54 61 74 78 78 78 80 78 72 60 55 54 58 66 77 93 104 97 109 79 100 96 97 101 101
4 6 6 6 12 19 21 26 33 40 44 46 49 48 48 41 46 53 63 73 80 89 89 87 80 64 58 54 46 48 53 67 81 91 92 100 115 81 100 95 98 98 99
7 15 19 12 15 16 22 27 34 40 42 45 48 50 51 51 58 68 74 79 85 89 88 86 69 53 41 18 17 24 45 65 75 83 92 106 80 101 95 100 104 105 102
2 7 11 11 13 18 24 28 33 38 44 48 48 46 47 58 66 71 78 84 87 88 87 80 60 35 1 6 22 27 44 63 76 76 92 111 66 89 92 99 100 97 96
2 3 11 8 12 18 25 31 32 35 41 49 51 49 54 59 66 72 78 80 83 87 84 75 49 31 19 10 29 36 47 61 71 78 103 96 72 83 82 81 90 92 95
10 2 10 13 12 20 25 28 35 39 41 46 51 55 56 64 68 71 76 77 86 91 88 82 57 34 16 22 25 36 46 59 70 65 87 99 67 79 88 82 88 87 88
10 2 9 13 15 19 25 26 36 45 49 49 48 54 56 62 65 68 72 77 86 91 93 87 70 33 33 29 28 27 40 61 65 63 76 82 78 79 80 81 75 82 87
5 13 15 21 24 21 29 39 41 46 52 53 52 53 55 57 61 66 71 76 82 90 95 93 82 68 17 31 31 28 38 49 65 62 64 69 69 65 77 82 73 84 87
25 24 36 33 34 36 37 36 38 40 41 44 48 53 52 56 58 63 71 77 82 85 88 90 91 80 68 51 29 39 36 33 37 50 58 64 63 66 74 73 76 77 83
Wind_Direction_850mb
209 212 223 234 220 229 241 250 260 271 285 291 295 302 308 312 312 307 304 301 296 297 299 299 296 287 281 278 276 275 272 267 275 277 274 285 293 291 291 282 271 256 242
203 220 227 221 228 239 248 258 275 286 290 295 297 300 305 307 307 304 301 297 291 291 294 292 286 290 286 286 280 276 271 268 269 277 274 267 272 290 281 271 267 255 246
201 217 223 231 241 249 258 269 277 283 288 297 299 300 303 305 305 303 300 296 290 290 293 291 276 277 280 282 281 280 275 273 269 268 272 264 265 280 284 258 245 241 253
213 223 233 239 248 256 263 267 276 288 295 295 295 299 303 303 301 300 297 292 290 289 292 285 276 274 273 274 275 280 275 275 274 276 275 265 256 265 269 259 231 231 237
210 222 229 238 243 246 253 261 277 286 288 296 298 299 301 302 301 300 297 293 289 288 285 281 276 272 272 273 272 270 266 270 273 273 275 274 254 253 249 252 235 234 225
208 216 219 220 226 238 249 262 281 291 293 292 295 298 298 298 298 297 294 288 285 284 281 273 269 268 268 267 264 265 261 261 259 265 265 262 262 250 261 242 233 215 212
210 213 218 225 226 233 251 275 283 281 282 286 290 293 294 295 297 298 299 292 285 286 286 285 281 276 273 269 267 266 263 259 257 258 259 258 255 255 243 240 231 236 232
199 198 204 212 221 240 263 275 274 276 284 289 293 294 295 297 299 301 303 298 289 288 286 284 280 277 274 269 269 269 262 261 257 257 251 251 249 249 246 247 239 239 227
186 193 207 216 235 253 267 274 279 284 289 292 295 297 300 302 309 314 310 302 295 292 290 288 285 281 277 274 272 264 261 262 261 256 257 253 248 244 246 233 228 220 221
191 208 215 233 256 271 278 282 285 290 293 296 301 307 310 311 316 310 302 296 292 292 291 288 285 282 281 278 273 268 267 266 259 254 255 251 246 236 235 234 228 218 216
210 221 236 258 272 278 283 288 291 294 299 308 308 310 312 307 300 295 291 287 289 290 285 282 280 278 277 276 273 269 266 269 263 258 253 250 244 243 229 229 225 222 222
226 243 261 275 283 288 289 290 293 302 305 309 310 303 301 305 312 313 308 302 296 292 288 287 285 284 284 279 273 268 264 258 254 248 245 238 240 240 231 225 225 225 232
243 255 269 283 284 287 292 297 301 304 305 301 302 306 310 315 314 312 314 313 309 306 301 298 295 291 288 282 276 272 269 257 240 239 236 240 232 229 230 226 226 223 225
254 266 280 281 288 293 298 302 301 301 302 304 307 309 312 312 312 317 314 311 307 303 301 301 295 292 290 288 283 277 269 257 239 229 229 224 222 221 219 224 213 212 215
264 275 279 285 286 290 293 289 295 294 300 305 306 309 307 309 313 311 309 307 305 303 304 295 296 297 292 288 284 278 269 255 237 225 219 212 212 213 210 212 198 202 206
260 260 271 278 292 284 285 291 291 303 316 310 311 307 306 308 314 313 312 309 316 322 313 308 307 304 299 295 288 280 272 252 233 214 208 205 209 203 201 186 192 198 198
254 262 276 273 275 292 301 314 324 331 330 326 332 324 326 326 327 324 321 325 332 331 329 323 309 306 300 292 281 265 261 251 226 207 199 201 199 195 191 185 187 198 198
241 271 300 290 308 319 331 337 332 337 342 339 345 346 343 341 339 344 344 343 345 345 338 323 317 313 305 292 288 264 246 230 214 200 196 195 189 192 181 183 182 185 191
221 348 2 34 355 347 348 349 351 350 350 351 353 357 359 354 356 1 5 2 353 348 342 336 331 322 317 303 279 253 233 211 198 190 188 189 185 193 181 181 187 188 192
58 25 34 16 2 1 7 6 6 2 4 7 9 6 1 6 7 7 9 3 360 355 350 344 338 340 335 322 255 202 192 188 181 179 179 179 182 182 186 187 186 189 195
123 20 11 9 7 23 21 21 18 15 17 18 18 19 22 18 15 11 10 7 5 2 358 353 350 1 36 89 129 167 172 171 169 172 176 175 180 175 178 179 185 186 192
181 351 18 24 18 17 20 26 19 17 19 21 22 21 25 25 21 16 15 12 11 11 9 6 9 38 153 135 142 153 160 164 170 168 177 175 175 178 181 187 192 193 195
200 301 29 18 2 9 30 34 27 27 27 28 27 25 24 26 24 22 19 18 21 18 19 22 31 55 163 162 143 152 156 160 164 164 179 184 176 173 186 192 192 194 198
172 6 15 20 26 40 46 35 35 34 32 29 27 26 24 25 24 24 25 26 26 26 28 32 38 51 102 166 174 159 165 163 169 171 171 177 181 191 196 200 200 204 201
135 15 34 76 72 60 47 45 39 35 30 27 26 26 26 26 27 27 32 33 33 31 32 36 40 51 83 140 162 168 172 174 179 181 183 194 192 193 198 200 208 206 204
43 55 97 86 70 65 54 40 32 32 30 27 33 33 33 33 33 33 36 39 39 39 36 37 41 45 56 70 135 166 172 173 190 194 201 208 205 205 203 204 207 209 208